www.pogodaiklimat.ru

Погода и климат >> Архив погоды >> Иран >> Шираз


ПОГОДА в Ширазе

  • Прогноз погоды в Ширазе
  • Монитор погоды в Ширазе

АРХИВ ПОГОДЫ в Ширазе

Время (UTC), дата Ветер
(напр.,м/с)
 
Видим.   Явления Облачность Т
(С)
Тd
(С)
f
(%)
Тe
(С)
Тes
(С)
Комфортность P
(гПа)
Po
(гПа)
Тmin
(С)
Tmax
(С)
R
(мм)
R24
(мм)
S
(см)
06 17.08 ЮЗ 2 15 км ясно +31.4 -8.4 7 +27 +41 жарко 999.2 847.9
09 17.08 ЮВ 2 15 км ясно +34.6 -8.7 6 +30 +50 жарко 998.7 846.8 666
12 17.08 ЮЗ 3 15 км 1/1 1200 м
[Cu hum]
+36.0 -15.0 3 +31 +38 жарко 996.7 844.5
15 17.08 штиль 0 15 км 1/1 1350 м
[Sc diur, vesp]
+34.2 -8.9 6 +30 +30 жарко 996.0 844.0 +38.0
18 17.08 С 2 15 км ясно +29.2 +5.9 23 +28 +28 жарко 995.6 845.4
21 17.08 штиль 0 15 км ясно +26.6 +5.8 26 +26 +26 жарко 995.8 845.7
00 18.08 штиль 0 15 км ясно +21.8 +6.5 37 +23 +23 комфорт 997.0 846.0
03 18.08 штиль 0 10 км ясно +19.8 +7.1 44 +20 +22 999.9 847.2 +16.6
06 18.08 С 2 15 км ясно +32.0 -8.7 7 +28 +41 жарко 999.7 848.3
09 18.08 В 3 15 км 1/1 1050 м
[Cu med, cong]
+35.8 -6.8 6 +31 +46 жарко 998.1 847.6
12 18.08 Ю 6 10 км 5/4 1050 м
[Cu med, cong Cs]
+35.6 +1.4 12 +32 +34 жарко 997.8 846.4
15 18.08 ЮЗ 5 10 км 5/4 1050 м
[Cb calv Ci sp]
+32.0 +0.5 13 +29 +29 жарко 1000.9 847.3 +37.8
18 18.08 штиль 0 10 км 4/1 1200 м
[Sc diur, vesp Ci sp]
+25.8 +4.4 25 +25 +25 комфорт 1001.6 849.4
21 18.08 штиль 0 10 км 4/1 1200 м
[Sc diur, vesp Ci sp]
+23.4 +6.5 34 +24 +24 комфорт 1001.0 849.3
00 19.08 штиль 0 10 км 5/1 1200 м
[Sc diur, vesp Ac trans]
+22.4 +6.5 36 +23 +23 комфорт 1000.4 848.5
03 19.08 штиль 0 10 км 5/1 1200 м
[Sc diur, vesp Ac trans]
+21.4 +6.9 39 +22 +23 комфорт 1002.8 849.9 +18.6
06 19.08 штиль 0 10 км 3/0
[Ac trans]
+31.2 +7.2 22 +30 +45 жарко 1003.5 850.9
09 19.08 В 2 10 км 4/3 1050 м
[Cu med, cong Ci fib]
+35.0 +1.6 12 +32 +45 жарко 1002.1 849.9
12 19.08 штиль 0 10 км 4/4 1050 м
[Cu med, cong]
+36.4 -2.3 8 +32 +39 жарко 1000.2 848.3
15 19.08 ЮЗ 4 10 км 4/3 1200 м
[Sc diur, vesp Ci fib]
+32.2 +2.3 15 +29 +29 жарко 1002.2 849.3 +37.6 666
18 19.08 штиль 0 10 км 1/1 1200 м
[Sc diur, vesp]
+28.4 +4.9 22 +27 +27 жарко 1002.1 850.7
21 19.08 СЗ 2 10 км 1/1 1200 м
[Sc diur, vesp]
+27.6 +8.0 29 +27 +27 жарко 1001.1 850.2
00 20.08 штиль 0 10 км 1/1 1200 м
[Sc diur, vesp]
+23.0 +8.2 39 +24 +24 комфорт 1001.3 850.1
03 20.08 штиль 0 10 км ясно +21.0 +10.4 51 +23 +24 комфорт 1004.4 851.4 +19.0 666
06 20.08 штиль 0 10 км ясно +31.6 +6.2 20 +30 +48 жарко 1004.5 852.4
09 20.08 Ю 3 10 км 1/1 1200 м
[Cu med, cong]
+35.8 -6.7 6 +31 +46 жарко 1002.6 851.2
12 20.08 С 2 10 км 1/1 1200 м
[Sc diur, vesp]
+36.0 -7.4 6 +32 +39 жарко 1000.7 849.0
15 20.08 штиль 0 10 км 1/1 1200 м
[Sc diur, vesp]
+32.4 -1.2 12 +29 +29 жарко 1001.6 848.6 +37.8
18 20.08 штиль 0 10 км ясно +30.4 +6.9 23 +29 +29 жарко 1001.4 850.3
21 20.08 штиль 0 10 км ясно +26.8 +10.1 35 +27 +27 жарко 1001.0 850.2
00 21.08 штиль 0 10 км ясно +20.5 +10.8 54 +22 +22 комфорт 1002.9 850.5
03 21.08 штиль 0 10 км ясно +20.2 +7.6 44 +21 +22 комфорт 1005.0 851.2 +18.0
06 21.08 штиль 0 12 км ясно +31.6 -7.8 7 +27 +45 жарко 1003.8 851.9
09 21.08 штиль 0 12 км ясно +34.8 -3.4 9 +31 +57 опасность
солнечного
удара
1001.9 850.3
12 21.08 З 2 12 км 1/1 1200 м
[Sc diur, vesp]
+36.4 -7.0 6 +32 +39 жарко 1000.2 848.2
15 21.08 В 2 15 км 1/1 1200 м
[Sc diur, vesp]
+34.2 -9.5 6 +30 +30 жарко 1000.4 847.7 +37.0 666
18 21.08 СЗ 3 15 км 1/1 1200 м
[Sc diur, vesp]
+28.4 -7.1 9 +25 +25 комфорт 1001.4 849.4
21 21.08 штиль 0 15 км ясно +22.6 +0.3 23 +22 +22 комфорт 1001.8 849.4
00 22.08 штиль 0 15 км ясно +20.6 +1.8 29 +21 +21 комфорт 1002.0 849.5
03 22.08 СЗ 2 15 км ясно +20.4 +5.9 39 +22 +23 комфорт 1002.5 850.4 +17.6
06 22.08 штиль 0 15 км ясно +30.6 -4.4 10 +27 +45 жарко 1003.1 850.7
09 22.08 СВ 3 15 км ясно +33.8 -4.5 8 +30 +46 жарко 1002.0 849.2 666
12 22.08 З 4 15 км 1/1 1200 м
[Cu hum]
+35.4 -11.2 5 +31 +36 жарко 1000.2 847.5
15 22.08 СВ 3 15 км 1/1 1200 м
[Cu hum]
+33.8 -10.9 5 +29 +29 жарко 999.8 846.7 +36.2 666
18 22.08 В 3 15 км 1/1 1200 м
[Cu hum]
+30.8 -11.0 6 +27 +27 жарко 1000.1 848.6
21 22.08 З 2 15 км ясно +22.6 -3.6 17 +21 +21 комфорт 1001.9 849.1
00 23.08 штиль 0 10 км ясно +19.6 -0.7 25 +19 +19 1002.5 849.4
03 23.08 СЗ 2 10 км 1/0
[Ac trans]
+21.6 +1.0 25 +21 +22 комфорт 1003.4 850.3 +18.2
06 23.08 штиль 0 15 км 1/0
[Ac trans]
+30.2 -5.7 9 +26 +43 жарко 1003.2 851.2
09 23.08 В 3 15 км 3/0
[Ci fib]
+33.6 -4.2 9 +30 +45 жарко 1003.0 850.0
12 23.08 Ю 3 15 км 3/3 1200 м
[Sc diur, vesp]
+35.0 -7.2 6 +31 +35 жарко 1001.6 848.4
15 23.08 СВ 2 15 км 3/3 1200 м
[Sc diur, vesp]
+33.0 -8.6 6 +29 +29 жарко 1000.8 847.7 +35.4
18 23.08 СЗ 3 10 км 4/1 1200 м
[Sc diur, vesp Ac trans]
+29.4 +6.7 24 +28 +28 жарко 1001.4 850.1
21 23.08 СЗ 3 10 км 1/1 1200 м
[Sc diur, vesp]
+26.4 +4.8 25 +26 +26 жарко 1001.3 850.1
00 24.08 штиль 0 10 км ясно +19.4 +3.8 36 +20 +20 1003.4 850.5

 

Местоположение метеостанции Шираз (Иран): широта 29.53 долгота 52.53 высота над уровнем моря 1481 м.

В архиве по умолчанию представлена погода в Ширазе за последнюю неделю. Архивные данные за месяц целиком и за предыдущие месяцы, начиная с января 2011 года, Вы можете получить, выбрав интересующий диапазон дат из раскрывающегося списка и нажав кнопку "Ввод!".


*Определитесь, кто Вы:
робот инопланетянин человек

Внимание! Время в таблицах - всемирное. Для получения местного времени необходимо прибавить поправку, которая равна 3.5 ч.

Смотрите также архив погоды в соседних городах и на ближайших метеорологических станциях:

Погода в Фесе (Иран) (128 км)
Погода в Ясудже (Иран) (156 км)
Погода в Бушире (Иран) (175 км)
Погода в Бушир аэропорту (Иран) (176 км)
Погода в Абаде (Иран) (184 км)
Погода в Гечсаране (Иран) (197 км)
Погода в Бендер-Дейере (Иран) (198 км)
Погода на Харке (Иран) (216 км)
Погода в Омидийе (Иран) (308 км)
Погода в Сирджане (Иран) (309 км)

Пояснения к столбцам:

Ветер - указаны скорость ветра в м/с - средняя за 10 мин, порывы в срок и между сроками (в фигурных скобках) и направление, откуда дует ветер: С - северный, СВ - северо-восточный, В - восточный, ЮВ - юго-восточный, Ю - южный, ЮЗ - юго-западный, З - западный, СЗ - северо-западный.
Видимость - горизонтальная дальность видимости в метрах или километрах. При видимости от 1 до 10 км при отсутствии осадков обычно наблюдается дымка, при ухудшении видимости до 1 км и менее - туман. В сухую погоду видимость может ухудшаться дымом, пылью или мглою.
Явления - указаны атмосферные явления, наблюдавшиеся в срок или в последний час перед сроком; фигурными скобками обозначены явления, наблюдавшиеся между сроками (за 1-3 часа до срока); квадратными скобками обозначены град или гололедные отложения с указанием их диаметра в мм.
Облачность - указаны через наклонную черту общая и нижняя облачность в баллах и высота нижней границы облаков в метрах; квадратными скобками обозначены формы облаков: Ci - перистые, Cs - перисто-слоистые, Cc - перисто-кучевые, Ac - высококучевые, As - высокослоистые, Sc - слоисто-кучевые, Ns - слоисто-дождевые, Cu - кучевые, Cb - кучево-дождевые. Подробнее классификацию облаков см. в Атласе облаков (PDF).
T - Температура воздуха - температура, измеренная на высоте 2 м над землей.
Td - Температура точки росы - температура, при понижении до которой содержащийся в воздухе водяной пар достигнет насыщения.
f - Относительная влажность воздуха - влажноcть воздуха, измеренная на высоте 2 м над землей.
Te - Эффективная температура - температура, которую ощущает одетый по сезону человек в тени. Характеристика душности погоды. При расчете учитывается влияние влажности воздуха и скорости ветра на теплоощущения человека.
Tes - Эффективная температура на солнце - температура, которую ощущает человек, с поправкой на солнечный нагрев. Характеристика знойности погоды. Зависит от высоты солнца над горизонтом, облачности и скорости ветра. Ночью, в пасмурную погоду, а также при ветре 12 м/с и более поправка равна нулю.
P - Атмосферное давление - приведенное к уровню моря атмосферное давление.
Po - Атмосферное давление - измеренное на уровне метеостанции атмосферное давление.
Tmin - Минимальная температура - минимум температуры воздуха на высоте 2 м над землей.
Tmax - Максимальная температура - максимум температуры воздуха на высоте 2 м над землей.
R - Количество осадков - Количество выпавших осадков за период времени, мм. При наведении курсора мыши на число - период времени, за который выпало указанное количество осадков.
R24 - Количество осадков - Количество выпавших осадков за 24 часа, мм.
S - Снежный покров - Высота снежного покрова, см. При наведении курсора мыши на число - состояние снежного покрова и степень покрытия местности в баллах.